This demonstration page uses our WeatherBlox Daily Observations layout. Learn more.

Left ArrowRight Arrow

Hourly Observations for June 20, 2016

Temp ( °F °C ) Dew Point ( °F °C ) Humidity (%) Winds ( mph kmh ) Pressure ( in mb ) Visibility ( mi km ) Precip ( " mm )
12:54 am 00:54 Clear 79 26.1 70 21.1 74 74 S 9 15 30.03 1017 10 16.0934 0 0
1:54 am 01:54 Clear 80 26.7 70 21.1 71 71 SSW 8 13 30.04 1017 10 16.0934 0 0
2:54 am 02:54 Clear 79 26.1 70 21.1 74 74 SSW 9 15 30.04 1017 10 16.0934 0 0
3:54 am 03:54 Partly Cloudy 79 26.1 70 21.1 74 74 SSW 8 13 30.05 1018 10 16.0934 0 0
4:54 am 04:54 Mostly Cloudy 78 25.6 71 21.7 79 79 SSW 8 13 30.06 1018 10 16.0934 0 0
5:54 am 05:54 Cloudy 79 26.1 71 21.7 77 77 SW 7 11 30.07 1018 10 16.0934 0 0
6:54 am 06:54 Cloudy 79 26.1 71 21.7 77 77 NW 5 7 30.09 1019 9 14.48406 0 0
7:54 am 07:54 Mostly Cloudy 80 26.7 72 22.2 76 76 W 5 7 30.1 1019 9 14.48406 0 0
8:54 am 08:54 Sunny 82 27.8 72 22.2 72 72 W 9 15 30.11 1020 9 14.48406 0 0
9:29 am 09:29 Mostly Cloudy 82 27.8 73 22.8 74 74 W 8 13 30.09 1019 8 12.87472 0 0
9:54 am 09:54 Cloudy 81 27.2 68 20 65 65 N 14 22 30.13 1020 10 16.0934 0 0
10:06 am 10:06 Cloudy 81 27 66 19 62 62 N 12 19 30.12 1020 10 16.0934 0 0
10:54 am 10:54 Cloudy 82 27.8 67 19.4 60 60 N 14 22 30.14 1021 10 16.0934 0 0
11:54 am 11:54 Partly Cloudy 85 29.4 68 20 57 57 N 13 20 30.16 1021 10 16.0934 0 0
12:54 pm 12:54 Sunny 84 28.9 64 17.8 51 51 NE 18 30 30.17 1022 10 16.0934 0 0
1:54 pm 13:54 Sunny 84 28.9 63 17.2 49 49 NNE 16 26 30.16 1022 10 16.0934 0 0
2:54 pm 14:54 Mostly Sunny 82 27.8 59 15 46 46 N 22 35 30.17 1022 10 16.0934 0 0
3:54 pm 15:54 Sunny 83 28.3 64 17.8 53 53 NE 15 24 30.15 1021 10 16.0934 0 0
4:54 pm 16:54 Sunny 81 27.2 61 16.1 51 51 N 17 28 30.15 1021 10 16.0934 0 0
5:54 pm 17:54 Mostly Sunny 83 28.3 57 13.9 41 41 NNE 20 31 30.14 1021 10 16.0934 0 0
6:54 pm 18:54 Partly Cloudy 78 25.6 56 13.3 47 47 NNE 17 28 30.13 1020 10 16.0934 0 0
7:54 pm 19:54 Partly Cloudy 76 24.4 53 11.7 45 45 ENE 12 19 30.1 1019 10 16.0934 0 0
8:54 pm 20:54 Sunny 73 22.8 59 15 62 62 NNE 7 11 30.1 1019 10 16.0934 0 0
9:54 pm 21:54 Clear 70 21.1 61 16.1 73 73 NNE 7 11 30.13 1020 10 16.0934 0 0
10:54 pm 22:54 Clear 69 20.6 62 16.7 78 78 NNE 6 9 30.16 1021 10 16.0934 0 0
11:54 pm 23:54 Partly Cloudy 68 20 62 16.7 81 81 N 6 9 30.15 1021 10 16.0934 0 0

Powered by AerisWeather